Location: Newport
(44.6370°N, 124.0520°W)
Time: 00:05:12
(UTC-07:00)

Vanguard 1 - All Passes

Search period start: 20 July 2018 00:00
Search period end: 30 July 2018 00:00
Orbit: 650 x 3833 km, 34.2° (Epoch: 19 July)

Date Brightness Start Highest point End Pass type
(mag) Time Alt. Az. Time Alt. Az. Time Alt. Az.
20 Jul - 00:57:16 10° SW 01:01:07 22° S 01:04:35 10° ESE night (unlit)
20 Jul - 03:17:04 10° WSW 03:20:23 20° S 03:24:07 10° SE visible
20 Jul - 22:58:25 10° SSW 23:02:19 16° SSE 23:05:29 10° SE visible
21 Jul - 01:17:55 10° SW 01:21:50 24° S 01:25:24 10° SE night (unlit)
21 Jul - 03:38:11 10° SW 03:41:06 17° SSW 03:44:23 10° SSE visible
21 Jul - 23:18:28 10° SW 23:23:07 20° S 23:26:44 10° ESE visible
22 Jul - 01:38:42 10° WSW 01:42:32 23° S 01:46:07 10° SE night (unlit)
22 Jul - 03:59:40 10° SW 04:01:49 13° SSW 04:04:11 10° S visible
22 Jul - 21:19:57 10° S 21:23:51 14° SSE 21:26:59 10° SE visible
22 Jul - 23:38:53 10° SW 23:43:54 24° S 23:47:43 10° ESE visible
23 Jul - 01:59:36 10° WSW 02:03:14 22° S 02:06:41 10° SE night (unlit)
23 Jul - 21:39:12 10° SSW 21:44:44 18° SSE 21:48:51 10° ESE visible
23 Jul - 23:59:33 10° SW 00:04:40 26° S 00:08:34 10° ESE visible
24 Jul - 02:20:40 10° WSW 02:23:54 19° SSW 02:27:04 10° SSE night (unlit)
24 Jul - 19:43:32 10° SSE 19:44:48 10° SSE 19:46:00 10° SSE daylight
24 Jul - 21:59:08 10° SW 22:05:37 23° SSE 22:10:08 10° ESE visible
25 Jul - 00:20:21 10° WSW 00:25:24 27° S 00:29:18 10° SE visible
25 Jul - 02:41:58 10° SW 02:44:34 15° SSW 02:47:08 10° SSE night (unlit)
25 Jul - 20:00:04 10° S 20:05:48 15° SSE 20:10:12 10° SE daylight
25 Jul - 22:19:30 10° SW 22:26:28 27° S 22:31:09 10° ESE visible
26 Jul - 00:41:17 10° WSW 00:46:06 26° S 00:49:55 10° SE visible
26 Jul - 03:04:03 10° SW 03:05:11 11° SSW 03:06:19 10° S night (unlit)
26 Jul - 20:19:05 10° SSW 20:26:46 20° SSE 20:32:08 10° ESE daylight
26 Jul - 22:40:08 10° SW 22:47:18 30° S 22:52:02 10° ESE visible
27 Jul - 01:02:19 10° WSW 01:06:47 24° SSW 01:10:25 10° SE visible
27 Jul - 18:23:22 10° SSE 18:26:13 11° SSE 18:28:46 10° SE daylight
27 Jul - 20:38:52 10° SSW 20:47:43 25° SSE 20:53:31 10° ESE daylight
27 Jul - 23:00:58 10° WSW 23:08:05 32° S 23:12:48 10° ESE visible
28 Jul - 01:23:29 10° WSW 01:27:24 20° SSW 01:30:43 10° SSE visible
28 Jul - 18:39:42 10° S 18:47:15 16° SSE 18:52:59 10° ESE daylight
28 Jul - 20:59:07 10° SW 21:08:40 30° SSE 21:14:37 10° ESE daylight
28 Jul - 23:21:55 10° WSW 23:28:51 33° S 23:33:29 10° ESE visible
29 Jul - 01:44:54 10° WSW 01:47:58 16° SSW 01:50:42 10° SSE visible
29 Jul - 18:58:21 10° SSW 19:08:17 21° SSE 19:15:07 10° ESE daylight
29 Jul - 21:19:41 10° SW 21:29:33 34° S 21:35:32 10° ESE visible
29 Jul - 23:42:59 10° WSW 23:49:34 31° SSW 23:54:03 10° SE visible
